Regional Weather Roundup
Issued by NWS

Home | Current Version | Previous Version | Graphics & Text | Print | Product List | Glossary On
Versions: 1 2 3 4 5 6 7 8 9 10 11 12 13 14 15 16 17 18 19 20 21 22 23 24 25 26 27 28 29 30 31 32 33 34 35 36 37 38 39 40 41 42 43 44 45 46 47 48 49 50
000
ASUS43 KLOT 242103
RWRIL

ILLINOIS REGIONAL WEATHER ROUNDUP
NATIONAL WEATHER SERVICE CHICAGO/ROMEOVILLE IL
400 PM CDT MON APR 24 2017

NOTE: "FAIR" INDICATES FEW OR NO CLOUDS BELOW 12,000 FEET WITH NO
SIGNIFICANT WEATHER AND/OR OBSTRUCTIONS TO VISIBILITY.

* THESE STATIONS ARE NOT UNDER NWS QUALITY CONTROL. THEY ALSO MAY NOT
  REPORT WEATHER SUCH AS PRECIPITATION OR FOG.

ILZ001-002-007-009-015-016-024-242200-
NORTHWEST ILLINOIS

CITY           SKY/WX    TMP DP  RH WIND       PRES   REMARKS
MOLINE         MOSUNNY   77  27  15 S10G23    29.75F
STERLING*      SUNNY     76  28  17 SE9       29.79F
SAVANNA*       MOSUNNY   76  21  12 S15       29.78F
$$

ILZ003-004-008-010-011-017-018-242200-
NORTH CENTRAL ILLINOIS

CITY           SKY/WX    TMP DP  RH WIND       PRES   REMARKS
ROCKFORD       CLOUDY    74  28  18 S12       29.82F
FREEPORT*      CLOUDY    72  28  19 S16G25    29.82F
ROCHELLE*      SUNNY     75  27  16 S20       29.82F
DE KALB*       CLOUDY    73  33  23 S13       29.84F
PERU*          SUNNY     75  27  17 SE16      29.80F
$$

ILZ005-006-012>014-019>023-242200-
NORTHEAST ILLINOIS

CITY           SKY/WX    TMP DP  RH WIND       PRES   REMARKS
CHICAGO-OHARE  PTSUNNY   72  30  21 E13       29.84F
CHICAGO-MIDWAY PTSUNNY   71  33  24 E12       29.85F
AURORA         SUNNY     75  31  19 SE17      29.83F
LANSING*       SUNNY     71  43  36 NE8       29.84F
JOLIET*        SUNNY     75  33  21 SE8G17    29.83F
WAUKEGAN       MOSUNNY   64  34  32 E9        29.86F
DUPAGE AIRPORT SUNNY     74  31  20 SE10      29.83F
KANKAKEE*      SUNNY     77  27  16 SE12G18   29.82F
WHEELING       MOSUNNY   69  31  24 E9        29.87F
MORRIS*        SUNNY     76  26  16 SE8G20    29.81F
NORTHERLY ISL    N/A     59  39  47 N7          N/A
$$

LMZ740>746-242200-
SOUTHERN LAKE MICHIGAN

STATION/POSITION SKY/WX   TEMP    WIND        PRES    VSBY  WAVE
                          AIR SEA DIR/SP/G                  HT/PER
                          (F)     (DEG/KT/KT) (MB)    (MI)  (FT/S)
SOUTHERN BUOY              47 43   30/  4/  4 1013.7          1/ 3
HARRISON CRIB              50     360/  5/  5   N/A
BURNHAM HARBOR             60      10/  7       N/A
CALUMET HARBOR             58      30/  8/ 10 1011.0F
BURNS HARBOR               56      80/  6/ 10 1011.9F
MICHIGAN CITY              54      20/ 12/ 15   N/A
ST. JOSEPH                 56 53   40/  6/  8 1011.8F         2/ 2
$$

ILZ025>027-034>036-040-047-049-050-058-095>099-242200-
WEST-CENTRAL ILLINOIS

CITY           SKY/WX    TMP DP  RH WIND       PRES   REMARKS
QUINCY         SUNNY     76  24  14 S16G22    29.75F
GALESBURG*     CLOUDY    75  31  19 SE13      29.77F
MACOMB*        MOSUNNY   78  24  13 SE13      29.79F
JACKSONVILLE*  SUNNY     76  27  16 S12       29.77F
PITTSFIELD*    SUNNY     77  31  18 S8G18     29.78F
$$

ILZ028>032-037-038-041>044-048-051>054-059>061-242200-
CENTRAL ILLINOIS

CITY           SKY/WX    TMP DP  RH WIND       PRES   REMARKS
PONTIAC        SUNNY     78  23  13 E14       29.82F
BLOOMINGTON    SUNNY     76  29  17 SE13G22   29.81F
DECATUR        SUNNY     77  32  19 E8        29.79F
PEORIA         SUNNY     77  25  14 SE12      29.78F
LACON*         SUNNY     76  34  21 SE12      29.78F
LINCOLN*       SUNNY     79  30  17 SE13G21   29.78F
SPRINGFIELD    SUNNY     79  25  13 SE14      29.78F
TAYLORVILLE    SUNNY     77  30  18 SE10G16   29.78F
$$

ILZ033-039-045-046-055>057-062-063-242200-
EAST-CENTRAL ILLINOIS

CITY           SKY/WX    TMP DP  RH WIND       PRES   REMARKS
CHAMPAIGN      SUNNY     79  22  12 E16G25    29.80F
RANTOUL*       SUNNY     79  28  15 E15       29.80F
MATTOON        SUNNY     76  32  20 E8        29.78F
PARIS*         SUNNY     78  31  18 NE9       29.81F
$$

ILZ079-100>102-242200-
SOUTHWEST ILLINOIS

CITY           SKY/WX    TMP DP  RH WIND       PRES   REMARKS
ALTON          MOSUNNY   75  34  22 SE12      29.79F
BELLEVILLE     SUNNY     76  35  22 E7        29.76F
CAHOKIA*       SUNNY     77  32  19 SE6       29.77F
SPARTA*        SUNNY     73  40  30 E8        29.79F
$$

ILZ064>066-069>071-074>076-080>082-084>086-088>090-092>094-242200-
SOUTH-CENTRAL ILLINOIS

CITY           SKY/WX    TMP DP  RH WIND       PRES   REMARKS
CARBONDALE     SUNNY     74  42  31 CALM      29.79F
CAIRO*         SUNNY     74  48  40 CALM      29.79F
EFFINGHAM*     SUNNY     76  35  22 CALM      29.81F
MARION         MOSUNNY   75  41  29 NE9       29.81F
MT. VERNON     SUNNY     75  36  24 NE9       29.79F
CENTRALIA*     SUNNY     77  34  20 NE5       29.78F
SALEM*         SUNNY     77  25  14 SE7       29.79F
METROPOLIS*    SUNNY     76  47  36 N3        29.79F
$$

ILZ067-068-072-073-078-083-087-091-242200-
SOUTHEAST ILLINOIS

CITY           SKY/WX    TMP DP  RH WIND       PRES   REMARKS
LAWRENCEVILLE  SUNNY     77  33  20 E8G18     29.78F
FLORA*         SUNNY     78  30  17 NE7       29.80F
FAIRFIELD*     SUNNY     76  33  20 NE3       29.78F
HARRISBURG*    SUNNY     74  42  32 NE5       29.80F
ROBINSON*      SUNNY     76  32  20 E7        29.79F
CARMI*         SUNNY     74  41  30 N7        29.79F
$$

ABBREVIATIONS USED IN REMARKS
   TC - TEMPERATURE IN CELSIUS
  WCI - WIND CHILL INDEX
   HX - HEAT INDEX
  VSB - VISIBILITY
$$





USA.gov is the U.S. government's official web portal to all federal, state and local government web resources and services.